カタログに戻る

USA 481

運用中軍事VLEO
NORAD 62550·PAYLOAD·🇺🇸 United States

打ち上げ Jan 10, 2025 から Vandenberg Space Force Base

Loading…

次のパス (今後24時間)

TLE

古いSource: Mike McCants

元期: Sep 1, 2026, 01:53 UTC

1 62550U 25005U   26244.07866756 0.00000000  00000-0  00000-0 0    06
2 62550  70.0180 226.3570 0003000  21.5264 338.4736 14.96713158    03

AllMySatでUSA 481をリアルタイム追跡

Download on the App Store